Location: Carthage
(33.8834°N, 106.6595°W)
Time: 02:53:32
(UTC+00:00)

Cosmos 2322 Rocket - Pass Details

Date: 21 May 2026
Orbit: 831 x 850 km, 71.0° (Epoch: 9 June)

Event Time Altitude Azimuth Distance (km) Brightness Sun altitude
Rises 03:50:25 0° 341° (NNW) 3,407 6.4 -19.1°
Reaches altitude 10° 03:52:53 10° 344° (NNW) 2,471 5.5 -19.5°
Maximum altitude 03:58:33 71° 68° (ENE) 894 2.2 -20.3°
Enters shadow 04:00:35 41° 141° (SE) 1,217 2.5 -20.6°
